| time (UTC) | temp C | wind direction | speed KPH | gust KPH | rain 1hr cm | rain 24hr cm | rain mn cm | humidity % | barometer mb |
| 20260507041541 | 10 | 79 | 0.0 | 0.0 | 0.00 | 0.00 | 0.00 | 71 | 1014.9 |
| 20260507040932 | 10 | 72 | 0.0 | 0.0 | 0.00 | 0.00 | 0.00 | 69 | 1014.9 |
| 20260507040332 | 10 | 79 | 0.0 | 0.0 | 0.00 | 0.00 | 0.00 | 71 | 1015.2 |
| 20260507035713 | 10 | 72 | 0.0 | 0.0 | 0.00 | 0.00 | 1.80 | 68 | 1015.2 |
| 20260507035145 | 10 | 75 | 0.0 | 0.0 | 0.00 | 0.00 | 1.80 | 69 | 1014.9 |
| 20260507034518 | 11 | 72 | 0.0 | 0.0 | 0.00 | 0.00 | 1.80 | 72 | 1015.2 |
| 20260507033911 | 11 | 75 | 0.0 | 0.0 | 0.00 | 0.00 | 1.80 | 68 | 1015.2 |
| 20260507033343 | 11 | 78 | 0.0 | 0.0 | 0.00 | 0.00 | 1.80 | 69 | 1015.2 |
| 20260507032121 | 11 | 74 | 0.0 | 0.0 | 0.00 | 0.00 | 1.80 | 67 | 1015.2 |
| 20260507030950 | 11 | 85 | 0.0 | 0.0 | 0.00 | 0.00 | 1.80 | 68 | 1015.2 |
| 20260507030351 | 11 | 72 | 0.0 | 0.0 | 0.00 | 0.00 | 1.80 | 68 | 1014.9 |
| 20260507025726 | 11 | 71 | 0.0 | 0.0 | 0.00 | 0.00 | 1.80 | 67 | 1015.2 |
| 20260507024540 | 11 | 74 | 0.0 | 0.0 | 0.00 | 0.00 | 1.80 | 65 | 1015.2 |
| 20260507023911 | 11 | 77 | 0.0 | 0.0 | 0.00 | 0.00 | 1.80 | 66 | 1014.9 |
| 20260507023354 | 11 | 74 | 0.0 | 0.0 | 0.00 | 0.00 | 1.80 | 70 | 1014.9 |
| 20260507022710 | 11 | 88 | 0.0 | 0.0 | 0.00 | 0.00 | 1.80 | 68 | 1014.9 |
| 20260507022117 | 11 | 77 | 0.0 | 1.6 | 0.00 | 0.00 | 1.80 | 67 | 1014.9 |
| 20260507021541 | 11 | 79 | 0.0 | 0.0 | 0.00 | 0.00 | 1.80 | 67 | 1014.5 |
| 20260507020939 | 12 | 55 | 3.2 | 4.8 | 0.00 | 0.00 | 1.80 | 65 | 1014.5 |
| 20260507020318 | 11 | 7 | 6.4 | 6.4 | 0.00 | 0.00 | 1.80 | 67 | 1014.2 |
| 20260507015728 | 11 | 66 | 0.0 | 0.0 | 0.00 | 0.00 | 1.80 | 69 | 1014.5 |
| 20260507015145 | 12 | 76 | 0.0 | 0.0 | 0.00 | 0.00 | 1.80 | 69 | 1014.2 |
| 20260507014513 | 12 | 57 | 1.6 | 4.8 | 0.00 | 0.00 | 1.80 | 66 | 1014.2 |
| 20260507013930 | 12 | 78 | 0.0 | 0.0 | 0.00 | 0.00 | 1.80 | 69 | 1014.2 |
| 20260507013354 | 12 | 71 | 1.6 | 3.2 | 0.00 | 0.00 | 1.80 | 70 | 1014.2 |
| 20260507012144 | 12 | 77 | 0.0 | 0.0 | 0.00 | 0.00 | 1.80 | 72 | 1013.8 |
| 20260507011532 | 11 | 86 | 0.0 | 0.0 | 0.00 | 0.00 | 1.80 | 75 | 1013.8 |
| 20260507010953 | 11 | 86 | 0.0 | 0.0 | 0.00 | 0.00 | 1.80 | 75 | 1013.8 |
| 20260507010329 | 11 | 80 | 0.0 | 0.0 | 0.00 | 0.00 | 1.80 | 85 | 1013.5 |
| 20260507005135 | 11 | 87 | 0.0 | 0.0 | 0.00 | 0.00 | 1.80 | 86 | 1013.5 |
| 20260507004543 | 12 | 80 | 0.0 | 0.0 | 0.00 | 0.00 | 1.80 | 84 | 1013.2 |
| 20260507003344 | 12 | 87 | 0.0 | 0.0 | 0.00 | 0.00 | 1.80 | 76 | 1013.2 |
| 20260507002728 | 12 | 91 | 0.0 | 0.0 | 0.00 | 0.00 | 1.80 | 79 | 1013.2 |
| 20260507001548 | 12 | 74 | 0.0 | 0.0 | 0.00 | 0.00 | 1.80 | 71 | 1012.8 |
| 20260507000314 | 13 | 75 | 0.0 | 0.0 | 0.00 | 0.00 | 1.80 | 68 | 1012.8 |
| 20260506235729 | 13 | 74 | 0.0 | 0.0 | 0.00 | 0.00 | 1.80 | 67 | 1012.8 |
| 20260506235133 | 13 | 63 | 0.0 | 1.6 | 0.00 | 0.00 | 1.80 | 66 | 1012.8 |
| 20260506234523 | 13 | 73 | 0.0 | 0.0 | 0.00 | 0.00 | 1.80 | 70 | 1012.8 |
| 20260506233939 | 13 | 51 | 0.0 | 0.0 | 0.00 | 0.00 | 1.80 | 67 | 1012.8 |
| 20260506233351 | 13 | 74 | 0.0 | 0.0 | 0.00 | 0.00 | 1.80 | 66 | 1012.8 |
| 20260506232743 | 13 | 66 | 0.0 | 0.0 | 0.00 | 0.00 | 1.80 | 66 | 1012.5 |
| 20260506232149 | 13 | 75 | 0.0 | 0.0 | 0.00 | 0.00 | 1.80 | 80 | 1012.5 |
| 20260506231525 | 13 | 77 | 0.0 | 0.0 | 0.00 | 0.00 | 1.80 | 74 | 1012.8 |
| 20260506230932 | 14 | 67 | 0.0 | 1.6 | 0.00 | 0.00 | 1.80 | 70 | 1013.2 |
| 20260506230329 | 14 | 79 | 0.0 | 0.0 | 0.00 | 0.00 | 1.80 | 70 | 1013.2 |
| 20260506225711 | 14 | 75 | 0.0 | 0.0 | 0.00 | 0.00 | 1.80 | 78 | 1013.2 |
| 20260506225110 | 14 | 78 | 0.0 | 0.0 | 0.00 | 0.00 | 1.80 | 79 | 1012.8 |
| 20260506224517 | 15 | 77 | 0.0 | 0.0 | 0.00 | 0.00 | 1.80 | 81 | 1013.2 |
| 20260506223932 | 15 | 77 | 0.0 | 0.0 | 0.00 | 0.00 | 1.80 | 80 | 1013.2 |
| 20260506223327 | 15 | 77 | 0.0 | 0.0 | 0.00 | 0.00 | 1.80 | 78 | 1012.8 |
| 20260506222722 | 15 | 81 | 0.0 | 0.0 | 0.00 | 0.00 | 1.80 | 75 | 1012.8 |
| 20260506222144 | 15 | 82 | 0.0 | 0.0 | 0.00 | 0.00 | 1.80 | 79 | 1012.8 |
| 20260506221515 | 15 | 78 | 0.0 | 0.0 | 0.00 | 0.00 | 1.80 | 71 | 1012.8 |
| 20260506220918 | 15 | 59 | 1.6 | 1.6 | 0.00 | 0.00 | 1.80 | 68 | 1012.8 |
| 20260506220343 | 15 | 88 | 0.0 | 0.0 | 0.00 | 0.00 | 1.80 | 68 | 1012.5 |
| 20260506215738 | 15 | 81 | 0.0 | 0.0 | 0.00 | 0.00 | 1.80 | 73 | 1012.8 |
| 20260506215141 | 15 | 66 | 0.0 | 0.0 | 0.00 | 0.00 | 1.80 | 70 | 1012.5 |
| 20260506214549 | 15 | 79 | 0.0 | 0.0 | 0.00 | 0.00 | 1.80 | 67 | 1012.1 |
| 20260506213317 | 16 | 64 | 0.0 | 0.0 | 0.00 | 0.00 | 1.80 | 65 | 1012.1 |
| 20260506212713 | 16 | 70 | 0.0 | 1.6 | 0.00 | 0.00 | 1.80 | 69 | 1012.1 |
| 20260506212127 | 15 | 70 | 0.0 | 1.6 | 0.00 | 0.00 | 1.80 | 64 | 1012.1 |
| 20260506210929 | 16 | 66 | 0.0 | 0.0 | 0.00 | 0.00 | 1.80 | 63 | 1012.1 |
| 20260506210347 | 16 | 67 | 0.0 | 0.0 | 0.00 | 0.00 | 1.80 | 69 | 1012.5 |
| 20260506204531 | 16 | 88 | 0.0 | 0.0 | 0.00 | 0.00 | 1.80 | 64 | 1012.1 |
| 20260506203311 | 16 | 111 | 6.4 | 9.7 | 0.00 | 0.00 | 1.80 | 66 | 1012.1 |
| 20260506202713 | 16 | 90 | 0.0 | 0.0 | 0.00 | 0.00 | 1.80 | 65 | 1012.1 |
| 20260506201533 | 16 | 50 | 1.6 | 1.6 | 0.00 | 0.00 | 1.80 | 63 | 1012.1 |
| 20260506200314 | 16 | 30 | 1.6 | 1.6 | 0.00 | 0.00 | 1.80 | 65 | 1011.8 |
| 20260506195752 | 16 | 315 | 0.0 | 0.0 | 0.00 | 0.00 | 1.80 | 66 | 1011.8 |
| 20260506194536 | 16 | 65 | 0.0 | 1.6 | 0.00 | 0.00 | 1.80 | 67 | 1011.8 |
| 20260506193953 | 16 | 62 | 1.6 | 1.6 | 0.00 | 0.00 | 1.80 | 65 | 1011.8 |
| 20260506193353 | 16 | 19 | 1.6 | 3.2 | 0.00 | 0.00 | 1.80 | 67 | 1012.1 |
| 20260506192743 | 16 | 41 | 1.6 | 1.6 | 0.00 | 0.00 | 1.80 | 67 | 1011.8 |
| 20260506192132 | 16 | 230 | 3.2 | 4.8 | 0.00 | 0.00 | 1.80 | 70 | 1011.8 |
| 20260506191543 | 15 | 114 | 3.2 | 3.2 | 0.00 | 0.00 | 1.80 | 69 | 1012.1 |
| 20260506190913 | 16 | 260 | 3.2 | 4.8 | 0.00 | 0.00 | 1.80 | 68 | 1011.8 |
| 20260506190340 | 16 | 39 | 4.8 | 4.8 | 0.00 | 0.00 | 1.80 | 69 | 1012.1 |
| 20260506185719 | 15 | 229 | 3.2 | 4.8 | 0.00 | 0.00 | 1.80 | 74 | 1012.1 |
| 20260506184536 | 15 | 50 | 1.6 | 1.6 | 0.00 | 0.00 | 1.80 | 78 | 1011.8 |
| 20260506183920 | 15 | 65 | 0.0 | 1.6 | 0.00 | 0.00 | 1.80 | 72 | 1012.1 |
| 20260506183330 | 15 | 15 | 3.2 | 4.8 | 0.00 | 0.00 | 1.80 | 76 | 1012.1 |
| 20260506182741 | 15 | 63 | 3.2 | 4.8 | 0.00 | 0.00 | 1.80 | 72 | 1012.1 |
| 20260506181541 | 15 | 158 | 3.2 | 4.8 | 0.00 | 0.00 | 1.80 | 75 | 1012.1 |
| 20260506180936 | 15 | 73 | 1.6 | 1.6 | 0.00 | 0.00 | 1.80 | 77 | 1012.1 |
| 20260506180354 | 15 | 159 | 3.2 | 3.2 | 0.00 | 0.00 | 1.80 | 79 | 1011.8 |
| 20260506175748 | 14 | 109 | 0.0 | 3.2 | 0.00 | 0.00 | 1.80 | 77 | 1012.1 |
| 20260506175127 | 15 | 63 | 0.0 | 3.2 | 0.00 | 0.00 | 1.80 | 76 | 1012.1 |
| 20260506174531 | 14 | 49 | 3.2 | 4.8 | 0.00 | 0.00 | 1.80 | 77 | 1012.5 |
| 20260506173943 | 14 | 172 | 0.0 | 0.0 | 0.00 | 0.00 | 1.80 | 80 | 1012.5 |
| 20260506173318 | 14 | 346 | 0.0 | 0.0 | 0.00 | 0.00 | 1.80 | 81 | 1012.5 |
| 20260506172712 | 13 | 138 | 1.6 | 1.6 | 0.00 | 0.00 | 1.80 | 79 | 1012.5 |
| 20260506172141 | 14 | 188 | 1.6 | 3.2 | 0.00 | 0.00 | 1.80 | 78 | 1012.5 |
| 20260506170953 | 13 | 73 | 1.6 | 1.6 | 0.00 | 0.00 | 1.80 | 79 | 1012.1 |
| 20260506170310 | 13 | 105 | 3.2 | 4.8 | 0.00 | 0.00 | 1.80 | 78 | 1012.5 |
| 20260506163946 | 12 | 9 | 4.8 | 4.8 | 0.00 | 0.00 | 1.80 | 86 | 1012.5 |
| 20260506163334 | 12 | 24 | 4.8 | 4.8 | 0.00 | 0.00 | 1.80 | 88 | 1012.8 |
| 20260506162749 | 12 | 7 | 4.8 | 6.4 | 0.00 | 0.00 | 1.80 | 88 | 1012.5 |
| 20260506162115 | 12 | 40 | 6.4 | 9.7 | 0.00 | 0.00 | 1.80 | 90 | 1012.8 |
| 20260506161546 | 11 | 76 | 0.0 | 0.0 | 0.00 | 0.00 | 1.80 | 92 | 1012.5 |
| 20260506160934 | 11 | 66 | 0.0 | 0.0 | 0.00 | 0.00 | 1.80 | 94 | 1012.8 |
| 20260506160351 | 11 | 11 | 1.6 | 1.6 | 0.00 | 0.00 | 1.80 | 93 | 1012.8 |
| 20260506155712 | 11 | 80 | 0.0 | 0.0 | 0.00 | 0.00 | 1.80 | 95 | 1012.5 |
| 20260506155128 | 11 | 82 | 1.6 | 1.6 | 0.00 | 0.00 | 1.80 | 94 | 1012.5 |
| 20260506154542 | 10 | 104 | 1.6 | 1.6 | 0.00 | 0.00 | 1.80 | 95 | 1012.1 |
| 20260506153930 | 10 | 14 | 6.4 | 9.7 | 0.00 | 0.00 | 1.80 | 95 | 1012.1 |
| 20260506153334 | 10 | 80 | 0.0 | 0.0 | 0.00 | 0.00 | 1.80 | 96 | 1011.8 |
| 20260506152733 | 10 | 70 | 1.6 | 1.6 | 0.00 | 0.00 | 1.80 | 95 | 1011.8 |
| 20260506151533 | 10 | 10 | 3.2 | 4.8 | 0.00 | 0.00 | 1.80 | 97 | 1011.8 |
| 20260506150933 | 10 | 344 | 8.0 | 12.9 | 0.00 | 0.00 | 1.80 | 97 | 1011.5 |
| 20260506150311 | 10 | 90 | 0.0 | 0.0 | 0.00 | 0.00 | 1.80 | 98 | 1011.8 |
| 20260506145750 | 10 | 75 | 0.0 | 1.6 | 0.00 | 0.00 | 1.80 | 97 | 1011.5 |
| 20260506145133 | 10 | 77 | 0.0 | 0.0 | 0.00 | 0.00 | 1.80 | 97 | 1011.5 |
| 20260506144538 | 10 | 49 | 3.2 | 3.2 | 0.00 | 0.00 | 1.80 | 97 | 1011.1 |
| 20260506143929 | 10 | 55 | 0.0 | 0.0 | 0.00 | 0.00 | 1.80 | 98 | 1011.1 |
| 20260506143317 | 10 | 80 | 3.2 | 4.8 | 0.00 | 0.00 | 1.80 | 98 | 1011.1 |
| 20260506142716 | 10 | 54 | 3.2 | 3.2 | 0.00 | 0.00 | 1.80 | 98 | 1010.8 |
| 20260506142117 | 10 | 70 | 0.0 | 1.6 | 0.00 | 0.00 | 1.80 | 98 | 1011.1 |
| 20260506141523 | 10 | 25 | 4.8 | 6.4 | 0.00 | 0.00 | 1.80 | 98 | 1010.8 |
| 20260506140935 | 10 | 56 | 3.2 | 3.2 | 0.00 | 0.00 | 1.80 | 98 | 1010.8 |
| 20260506140343 | 10 | 74 | 0.0 | 1.6 | 0.00 | 0.00 | 1.80 | 99 | 1010.8 |
| 20260506135734 | 10 | 350 | 3.2 | 9.7 | 0.00 | 0.00 | 1.80 | 99 | 1011.1 |
| 20260506135139 | 10 | 49 | 3.2 | 6.4 | 0.00 | 0.00 | 1.80 | 99 | 1010.8 |
| 20260506134512 | 10 | 149 | 1.6 | 1.6 | 0.00 | 0.00 | 1.80 | 99 | 1010.1 |
| 20260506133920 | 11 | 40 | 6.4 | 9.7 | 0.00 | 0.00 | 1.80 | 99 | 1010.1 |
| 20260506133350 | 11 | 51 | 3.2 | 4.8 | 0.00 | 0.00 | 1.78 | 99 | 1009.8 |
| 20260506132744 | 11 | 66 | 3.2 | 4.8 | 0.00 | 0.00 | 1.78 | 99 | 1010.1 |
| 20260506132120 | 11 | 38 | 0.0 | 1.6 | 0.00 | 0.00 | 1.75 | 99 | 1009.8 |
| 20260506131514 | 11 | 20 | 8.0 | 14.5 | 0.00 | 0.00 | 1.75 | 99 | 1009.4 |
| 20260506130920 | 12 | 81 | 1.6 | 1.6 | 0.00 | 0.00 | 1.73 | 99 | 1009.4 |
| 20260506125727 | 14 | 258 | 0.0 | 1.6 | 0.00 | 0.00 | 1.73 | 99 | 1008.8 |
| 20260506125146 | 14 | 68 | 0.0 | 0.0 | 0.00 | 0.00 | 1.73 | 99 | 1008.4 |
| 20260506124511 | 14 | 210 | 4.8 | 4.8 | 0.00 | 0.00 | 1.73 | 99 | 1008.8 |
| 20260506123932 | 14 | 176 | 1.6 | 3.2 | 0.00 | 0.00 | 1.73 | 99 | 1008.4 |
| 20260506123320 | 14 | 192 | 3.2 | 4.8 | 0.00 | 0.00 | 1.73 | 99 | 1008.4 |
| 20260506122715 | 14 | 83 | 0.0 | 0.0 | 0.00 | 0.00 | 1.73 | 99 | 1008.4 |
| 20260506122149 | 14 | 85 | 0.0 | 0.0 | 0.00 | 0.00 | 1.73 | 99 | 1008.4 |
| 20260506121518 | 13 | 131 | 3.2 | 3.2 | 0.00 | 0.00 | 1.73 | 99 | 1008.1 |
| 20260506120310 | 13 | 174 | 1.6 | 3.2 | 0.00 | 0.00 | 1.73 | 99 | 1008.1 |
| 20260506115715 | 13 | 92 | 0.0 | 0.0 | 0.00 | 0.00 | 1.73 | 99 | 1008.1 |
| 20260506115122 | 13 | 78 | 0.0 | 0.0 | 0.00 | 0.00 | 1.73 | 99 | 1007.7 |
| 20260506114533 | 13 | 238 | 4.8 | 4.8 | 0.00 | 0.00 | 1.73 | 99 | 1007.4 |
| 20260506113948 | 13 | 67 | 1.6 | 1.6 | 0.00 | 0.00 | 1.73 | 99 | 1008.1 |
| 20260506112733 | 13 | 83 | 0.0 | 0.0 | 0.00 | 0.00 | 1.73 | 99 | 1008.1 |
| 20260506111515 | 13 | 133 | 3.2 | 3.2 | 0.00 | 0.00 | 1.73 | 99 | 1007.7 |
| 20260506110913 | 13 | 110 | 3.2 | 4.8 | 0.00 | 0.00 | 1.70 | 99 | 1007.4 |
| 20260506105711 | 13 | 184 | 0.0 | 0.0 | 0.00 | 0.00 | 1.68 | 99 | 1007.7 |
| 20260506105146 | 13 | 166 | 0.0 | 1.6 | 0.00 | 0.00 | 1.68 | 99 | 1007.4 |
| 20260506103921 | 13 | 192 | 0.0 | 1.6 | 0.00 | 0.00 | 1.68 | 99 | 1007.4 |
| 20260506103351 | 13 | 90 | 0.0 | 0.0 | 0.00 | 0.00 | 1.68 | 99 | 1007.4 |
| 20260506102708 | 13 | 95 | 3.2 | 4.8 | 0.00 | 0.00 | 1.68 | 99 | 1007.4 |
| 20260506102109 | 13 | 113 | 0.0 | 0.0 | 0.00 | 0.00 | 1.68 | 99 | 1007.4 |
| 20260506100950 | 13 | 140 | 1.6 | 1.6 | 0.00 | 0.00 | 1.68 | 99 | 1007.4 |
| 20260506095711 | 13 | 121 | 0.0 | 0.0 | 0.00 | 0.00 | 1.63 | 99 | 1007.4 |
| 20260506095149 | 13 | 95 | 0.0 | 0.0 | 0.00 | 0.00 | 1.63 | 99 | 1007.4 |
| 20260506094538 | 13 | 81 | 0.0 | 0.0 | 0.00 | 0.00 | 1.60 | 99 | 1007.4 |
| 20260506093321 | 13 | 76 | 0.0 | 0.0 | 0.00 | 0.00 | 1.55 | 99 | 1007.4 |
| 20260506092747 | 13 | 95 | 0.0 | 0.0 | 0.00 | 0.00 | 1.52 | 99 | 1007.4 |
| 20260506092113 | 13 | 83 | 0.0 | 0.0 | 0.00 | 0.00 | 1.50 | 99 | 1007.4 |
| 20260506090323 | 13 | 81 | 0.0 | 0.0 | 0.00 | 0.00 | 1.42 | 99 | 1007.7 |
| 20260506085736 | 13 | 80 | 0.0 | 0.0 | 0.00 | 0.00 | 1.42 | 99 | 1007.7 |
| 20260506085114 | 13 | 77 | 0.0 | 0.0 | 0.00 | 0.00 | 1.42 | 99 | 1007.7 |
| 20260506083926 | 13 | 83 | 0.0 | 0.0 | 0.00 | 0.00 | 1.40 | 99 | 1007.7 |
| 20260506083337 | 13 | 81 | 0.0 | 0.0 | 0.00 | 0.00 | 1.35 | 99 | 1007.7 |
| 20260506082737 | 13 | 85 | 0.0 | 0.0 | 0.00 | 0.00 | 1.32 | 99 | 1007.7 |
| 20260506082142 | 13 | 100 | 0.0 | 0.0 | 0.00 | 0.00 | 1.30 | 99 | 1007.4 |
| 20260506081514 | 13 | 118 | 1.6 | 1.6 | 0.00 | 0.00 | 1.30 | 99 | 1007.4 |
| 20260506080930 | 13 | 100 | 0.0 | 0.0 | 0.00 | 0.00 | 1.27 | 99 | 1007.4 |
| 20260506080318 | 13 | 103 | 0.0 | 0.0 | 0.00 | 0.00 | 1.22 | 99 | 1007.4 |
| 20260506073309 | 13 | 204 | 0.0 | 1.6 | 0.00 | 0.00 | 0.81 | 98 | 1007.7 |
| 20260506072709 | 13 | 108 | 3.2 | 3.2 | 0.00 | 0.00 | 0.69 | 98 | 1007.7 |
| 20260506072143 | 13 | 108 | 1.6 | 3.2 | 0.00 | 0.00 | 0.61 | 98 | 1008.1 |
| 20260506071550 | 13 | 221 | 0.0 | 3.2 | 0.00 | 0.00 | 0.56 | 97 | 1008.4 |
| 20260506070907 | 14 | 74 | 3.2 | 3.2 | 0.00 | 0.00 | 0.43 | 97 | 1008.4 |
| 20260506070330 | 14 | 94 | 1.6 | 1.6 | 0.00 | 0.00 | 0.28 | 95 | 1008.4 |
| 20260506062127 | 15 | 156 | 1.6 | 1.6 | 0.00 | 0.00 | 0.03 | 90 | 1007.7 |
| 20260506061510 | 15 | 103 | 0.0 | 1.6 | 0.00 | 0.00 | 0.03 | 89 | 1007.7 |
| 20260506060342 | 13 | 153 | 3.2 | 3.2 | 0.00 | 0.00 | 0.03 | 94 | 1007.7 |
| 20260506050949 | 13 | 80 | 0.0 | 0.0 | 0.00 | 0.00 | 0.03 | 98 | 1008.4 |
| 20260506050336 | 13 | 80 | 0.0 | 0.0 | 0.00 | 0.00 | 0.03 | 98 | 1008.4 |
| 20260506044516 | 13 | 85 | 0.0 | 0.0 | 0.00 | 0.00 | 0.03 | 98 | 1008.8 |
| 20260506043920 | 13 | 79 | 0.0 | 0.0 | 0.00 | 0.00 | 0.03 | 97 | 1009.1 |